• In Österreich
  • Länderverzeichnis
  • Für 7 Tage
  • Wassertemperatur
  • Satellitenkarten
  • Wetterkarte
  • News
  • Widgets
  • user-avatar
    Anmelden

    Stündliche Wetter Boreyshevo

    Heute, 16 August, Donnerstag

    Zeit Temperatur Niederschläge Wind Luftdruck Luftfeuchtigkeit
    00:00 +17°C° 0 mm 2 m/S 744 mmHg 93%
    01:00 +17°C° 0 mm 2 m/S 744 mmHg 94%
    02:00 +16°C° 0 mm 2 m/S 744 mmHg 96%
    03:00 +16°C° 0,1 mm 2 m/S 744 mmHg 96%
    04:00 +16°C° 0,1 mm 2 m/S 745 mmHg 96%
    05:00 +16°C° 0,1 mm 2 m/S 745 mmHg 97%
    06:00 +17°C° 0 mm 2 m/S 745 mmHg 94%
    07:00 +18°C° 0 mm 2 m/S 746 mmHg 91%
    08:00 +20°C° 0 mm 2 m/S 746 mmHg 87%
    09:00 +20°C° 0,2 mm 2 m/S 746 mmHg 85%
    10:00 +21°C° 0,2 mm 2 m/S 746 mmHg 82%
    11:00 +22°C° 0,2 mm 3 m/S 747 mmHg 80%
    12:00 +22°C° 0,5 mm 3 m/S 747 mmHg 78%
    13:00 +22°C° 0,5 mm 3 m/S 747 mmHg 77%
    14:00 +24°C° 0,5 mm 3 m/S 747 mmHg 75%
    15:00 +24°C° 0,3 mm 3 m/S 747 mmHg 76%
    16:00 +24°C° 0,3 mm 2 m/S 747 mmHg 76%
    17:00 +23°C° 0,3 mm 2 m/S 747 mmHg 77%
    18:00 +21°C° 0 mm 2 m/S 747 mmHg 82%
    19:00 +20°C° 0 mm 2 m/S 747 mmHg 87%
    20:00 +18°C° 0 mm 2 m/S 747 mmHg 93%
    21:00 +18°C° 0 mm 2 m/S 748 mmHg 94%
    22:00 +17°C° 0 mm 2 m/S 748 mmHg 95%
    23:00 +16°C° 0 mm 2 m/S 748 mmHg 96%

    Morgen, 17 August, Freitag

    Zeit Temperatur Niederschläge Wind Luftdruck Luftfeuchtigkeit
    00:00 +16°C° 0 mm 2 m/S 748 mmHg 96%
    01:00 +16°C° 0 mm 2 m/S 748 mmHg 96%
    02:00 +15°C° 0 mm 2 m/S 748 mmHg 96%
    03:00 +15°C° 0 mm 2 m/S 748 mmHg 97%
    04:00 +15°C° 0 mm 2 m/S 748 mmHg 97%
    05:00 +15°C° 0 mm 2 m/S 749 mmHg 97%
    06:00 +16°C° 0 mm 2 m/S 749 mmHg 94%
    07:00 +17°C° 0 mm 2 m/S 749 mmHg 90%
    08:00 +19°C° 0 mm 3 m/S 749 mmHg 87%
    09:00 +20°C° 0 mm 3 m/S 749 mmHg 82%
    10:00 +22°C° 0 mm 3 m/S 749 mmHg 78%
    11:00 +24°C° 0 mm 3 m/S 749 mmHg 73%
    12:00 +25°C° 0,1 mm 3 m/S 749 mmHg 71%
    13:00 +25°C° 0,1 mm 3 m/S 748 mmHg 69%
    14:00 +26°C° 0,1 mm 4 m/S 748 mmHg 68%
    15:00 +25°C° 0,3 mm 3 m/S 748 mmHg 70%
    16:00 +25°C° 0,3 mm 3 m/S 748 mmHg 72%
    17:00 +25°C° 0,3 mm 3 m/S 748 mmHg 75%
    18:00 +22°C° 0,1 mm 3 m/S 748 mmHg 80%
    19:00 +21°C° 0,1 mm 3 m/S 748 mmHg 85%
    20:00 +19°C° 0,1 mm 2 m/S 748 mmHg 90%
    21:00 +19°C° 0 mm 3 m/S 748 mmHg 90%
    22:00 +18°C° 0 mm 3 m/S 748 mmHg 91%
    23:00 +17°C° 0 mm 3 m/S 748 mmHg 91%

    übermorgen, 18 August, Samstag

    Zeit Temperatur Niederschläge Wind Luftdruck Luftfeuchtigkeit
    00:00 +17°C° 0 mm 3 m/S 748 mmHg 91%
    01:00 +17°C° 0 mm 3 m/S 748 mmHg 92%
    02:00 +16°C° 0 mm 3 m/S 748 mmHg 92%
    03:00 +16°C° 0 mm 3 m/S 748 mmHg 93%
    04:00 +16°C° 0 mm 3 m/S 748 mmHg 93%
    05:00 +16°C° 0 mm 3 m/S 748 mmHg 94%
    06:00 +17°C° 0 mm 3 m/S 748 mmHg 90%
    07:00 +18°C° 0 mm 3 m/S 748 mmHg 87%
    08:00 +19°C° 0 mm 4 m/S 748 mmHg 84%
    09:00 +21°C° 0,1 mm 4 m/S 748 mmHg 80%
    10:00 +22°C° 0,1 mm 4 m/S 748 mmHg 76%
    11:00 +25°C° 0,1 mm 4 m/S 748 mmHg 72%
    12:00 +25°C° 0,7 mm 4 m/S 748 mmHg 73%
    13:00 +25°C° 0,7 mm 5 m/S 747 mmHg 73%
    14:00 +25°C° 0,7 mm 5 m/S 747 mmHg 74%
    15:00 +23°C° 1,2 mm 4 m/S 747 mmHg 77%
    16:00 +23°C° 1,2 mm 4 m/S 747 mmHg 81%
    17:00 +22°C° 1,2 mm 3 m/S 747 mmHg 84%
    18:00 +21°C° 0,4 mm 3 m/S 747 mmHg 87%
    19:00 +20°C° 0,4 mm 3 m/S 747 mmHg 90%
    20:00 +19°C° 0,4 mm 3 m/S 747 mmHg 93%
    21:00 +19°C° 0 mm 3 m/S 747 mmHg 94%
    22:00 +18°C° 0 mm 3 m/S 746 mmHg 95%
    23:00 +18°C° 0 mm 3 m/S 746 mmHg 95%

    19 August, Sonntag

    Zeit Temperatur Niederschläge Wind Luftdruck Luftfeuchtigkeit
    00:00 +18°C° 0 mm 3 m/S 746 mmHg 96%
    01:00 +18°C° 0 mm 3 m/S 746 mmHg 96%
    02:00 +17°C° 0 mm 2 m/S 746 mmHg 96%
    03:00 +17°C° 0 mm 2 m/S 746 mmHg 97%
    04:00 +17°C° 0 mm 2 m/S 746 mmHg 97%
    05:00 +17°C° 0 mm 2 m/S 746 mmHg 97%
    06:00 +18°C° 0 mm 2 m/S 746 mmHg 94%
    07:00 +19°C° 0 mm 2 m/S 746 mmHg 91%
    08:00 +20°C° 0 mm 2 m/S 746 mmHg 88%
    09:00 +21°C° 0 mm 2 m/S 746 mmHg 82%
    10:00 +24°C° 0 mm 2 m/S 746 mmHg 75%
    11:00 +25°C° 0 mm 3 m/S 746 mmHg 69%
    12:00 +26°C° 0,2 mm 3 m/S 746 mmHg 67%
    13:00 +26°C° 0,2 mm 3 m/S 746 mmHg 64%
    14:00 +27°C° 0,2 mm 3 m/S 746 mmHg 61%
    15:00 +27°C° 0,4 mm 2 m/S 746 mmHg 65%
    16:00 +26°C° 0,4 mm 2 m/S 746 mmHg 68%
    17:00 +26°C° 0,4 mm 2 m/S 746 mmHg 71%
    18:00 +24°C° 0,4 mm 2 m/S 746 mmHg 77%
    19:00 +21°C° 0,4 mm 2 m/S 746 mmHg 82%
    20:00 +19°C° 0,4 mm 2 m/S 746 mmHg 88%
    21:00 +19°C° 0 mm 2 m/S 746 mmHg 90%
    22:00 +18°C° 0 mm 2 m/S 746 mmHg 91%
    23:00 +18°C° 0 mm 2 m/S 746 mmHg 93%

    20 August, Montag

    Zeit Temperatur Niederschläge Wind Luftdruck Luftfeuchtigkeit
    00:00 +17°C° 0 mm 2 m/S 746 mmHg 93%
    01:00 +17°C° 0 mm 2 m/S 746 mmHg 92%
    02:00 +17°C° 0 mm 2 m/S 746 mmHg 92%
    03:00 +16°C° 0 mm 2 m/S 746 mmHg 92%
    04:00 +16°C° 0 mm 2 m/S 746 mmHg 92%
    05:00 +16°C° 0 mm 2 m/S 746 mmHg 92%
    06:00 +17°C° 0 mm 2 m/S 747 mmHg 91%
    07:00 +18°C° 0 mm 2 m/S 747 mmHg 89%
    08:00 +18°C° 0 mm 2 m/S 747 mmHg 87%
    09:00 +20°C° 0 mm 2 m/S 747 mmHg 82%
    10:00 +21°C° 0 mm 2 m/S 747 mmHg 77%
    11:00 +23°C° 0 mm 2 m/S 747 mmHg 71%
    12:00 +23°C° 0,1 mm 2 m/S 747 mmHg 70%
    13:00 +23°C° 0,1 mm 2 m/S 747 mmHg 69%
    14:00 +23°C° 0,1 mm 2 m/S 747 mmHg 68%
    15:00 +23°C° 0,1 mm 2 m/S 747 mmHg 69%
    16:00 +23°C° 0,1 mm 2 m/S 747 mmHg 69%
    17:00 +23°C° 0,1 mm 2 m/S 746 mmHg 69%
    18:00 +22°C° 0 mm 1 m/S 746 mmHg 74%
    19:00 +20°C° 0 mm 1 m/S 746 mmHg 79%
    20:00 +19°C° 0 mm 1 m/S 746 mmHg 83%
    21:00 +18°C° 0 mm 1 m/S 746 mmHg 85%
    22:00 +18°C° 0 mm 1 m/S 746 mmHg 87%
    23:00 +16°C° 0 mm 1 m/S 746 mmHg 88%

    21 August, Dienstag

    Zeit Temperatur Niederschläge Wind Luftdruck Luftfeuchtigkeit
    00:00 +16°C° 0 mm 1 m/S 746 mmHg 90%
    01:00 +16°C° 0 mm 2 m/S 746 mmHg 91%
    02:00 +16°C° 0 mm 2 m/S 746 mmHg 93%
    03:00 +15°C° 0 mm 2 m/S 746 mmHg 93%
    04:00 +15°C° 0 mm 2 m/S 746 mmHg 94%
    05:00 +14°C° 0 mm 3 m/S 746 mmHg 94%
    06:00 +17°C° 0 mm 3 m/S 746 mmHg 90%
    07:00 +18°C° 0 mm 4 m/S 746 mmHg 86%
    08:00 +20°C° 0 mm 4 m/S 746 mmHg 82%
    09:00 +21°C° 0,1 mm 4 m/S 746 mmHg 77%
    10:00 +23°C° 0,1 mm 5 m/S 745 mmHg 73%
    11:00 +25°C° 0,1 mm 5 m/S 745 mmHg 68%
    12:00 +26°C° 0,5 mm 5 m/S 745 mmHg 66%
    13:00 +26°C° 0,5 mm 6 m/S 745 mmHg 64%
    14:00 +27°C° 0,5 mm 6 m/S 745 mmHg 62%
    15:00 +27°C° 0,2 mm 5 m/S 744 mmHg 65%
    16:00 +26°C° 0,2 mm 4 m/S 744 mmHg 68%
    17:00 +26°C° 0,2 mm 4 m/S 744 mmHg 70%
    18:00 +24°C° 0 mm 3 m/S 744 mmHg 75%
    19:00 +22°C° 0 mm 3 m/S 744 mmHg 80%
    20:00 +20°C° 0 mm 3 m/S 744 mmHg 85%
    21:00 +20°C° 0 mm 2 m/S 745 mmHg 87%
    22:00 +19°C° 0 mm 2 m/S 745 mmHg 89%
    23:00 +18°C° 0 mm 2 m/S 745 mmHg 91%
    Mehr zeigen